Regional Weather Roundup
Issued by NWS

Home | Current Version | Previous Version | Graphics & Text | Print | Product List | Glossary On
Versions: 1 2 3 4 5 6 7 8 9 10 11 12 13 14 15 16 17 18 19 20 21 22 23 24 25 26 27 28 29 30 31 32 33 34 35 36 37 38 39 40 41 42 43 44 45 46 47 48 49 50
000
ASUS43 KDMX 050307
RWRIA

WEATHER ROUNDUP FOR IOWA
NATIONAL WEATHER SERVICE DES MOINES IA
900 PM CST WED MAR 04 2015

NOTE: "FAIR" INDICATES FEW OR NO CLOUDS BELOW 12,000 FEET WITH NO
SIGNIFICANT WEATHER AND/OR OBSTRUCTIONS TO VISIBILITY.

* - THESE STATIONS ARE NOT NWS STATIONS...THUS NOT UNDER NWS
QUALITY CONTROL.  THEY ALSO DO NOT REPORT WEATHER SUCH
AS PRECIPITATION OR FOG.

IAZ001>003-012>014-020>022-031>034-043>046-050400-
   NORTHWEST IOWA

CITY           SKY/WX    TMP DP  RH WIND       PRES   REMARKS
CARROLL *      PTCLDY     9  -2  61 NW15      30.42R WCI  -8
CHEROKEE *     CLEAR      3  -6  66 N8        30.45R WCI -10
DENISON *      CLEAR      7  -4  61 N10       30.42R WCI  -8
LE MARS *      CLEAR      3  -4  72 CALM      30.47R
ORANGE CITY *  CLEAR      5  -6  61 N3        30.42R
SHELDON *      CLEAR      0  -9  65 NW6       30.42R WCI -12
STORM LAKE *   CLEAR      3  -6  66 NW13      30.42R WCI -14
$$

IAZ055>058-069>071-079>083-090>094-050400-
   SOUTHWEST IOWA

CITY           SKY/WX    TMP DP  RH WIND       PRES   REMARKS
ATLANTIC *     PTCLDY    12   0  57 N14       30.42R WCI  -3
AUDUBON *      CLEAR     10  -2  56 N12       30.41R WCI  -4
CLARINDA *     CLEAR     16   1  53 N10       30.42F WCI   3
COUNCIL BLFS * CLEAR     16  -2  45 N14       30.41R WCI   1
CRESTON *      CLEAR     14  -2  48 N12       30.38S WCI   0
HARLAN  *      CLEAR     10  -2  56 N12       30.46R WCI  -4
RED OAK *      CLEAR     14   3  62 N9        30.43R WCI   2
SHENANDOAH *   CLEAR     16   1  53 N10       30.43S WCI   3
$$

IAZ047>049-059>061-072>074-084-050400-
   CENTRAL IOWA

CITY           SKY/WX    TMP DP  RH WIND       PRES   REMARKS
ANKENY *       CLOUDY    16   5  62 NW12      30.42R WCI   3
CHARITON *     MOCLDY    18   3  53 NW14      30.39R WCI   4
GRINNELL*      PTCLDY     9   5  85 NW5       30.40R WCI   0
KNOXVILLE *    FLURRIES  16   9  73 N7G16     30.39R WCI   6
PELLA *        PTCLDY    14  12  92 N6        30.42R WCI   5
PERRY *          N/A     14   5  67 NW18      30.43R WCI  -3
$$

IAZ004>006-015-016-023>025-035-036-050400-
   NORTH CENTRAL IOWA

CITY           SKY/WX    TMP DP  RH WIND       PRES   REMARKS
ALGONA *       MOCLDY     5   5 100 N10G17    30.42R WCI -10
CLARION *      PTCLDY     7   1  78 N15G22    30.40R WCI -11
FOREST CITY *  CLEAR      5  -8  56 NW13G20   30.39R WCI -12
IOWA FALLS *     N/A      7   0  72 N14       30.39R WCI -10
$$

IAZ007>011-017>019-026>030-037>042-050>054-066-050400-
   NORTHEAST IOWA

CITY           SKY/WX    TMP DP  RH WIND       PRES   REMARKS
CHARLES CITY * PTCLDY     5  -2  72 NW15      30.38R WCI -13
DECORAH *      CLEAR      5  -6  61 NW10G17   30.32R WCI -10
MONTICELLO *   CLEAR      3  -4  72 W5        30.35F WCI  -6
OELWEIN *      PTCLDY     3  -2  78 NW10      30.37R WCI -12
$$

IAZ064-065-067-068-078-050400-
   EAST CENTRAL IOWA

CITY           SKY/WX    TMP DP  RH WIND       PRES   REMARKS
MT. PLEASANT * CLOUDY    16   9  73 N3        30.38R
MUSCATINE *    CLOUDY    16   5  62 N7        30.40R WCI   6
$$

IAZ062-063-075>077-085>089-095>099-050400-
   SOUTHEAST IOWA

CITY           SKY/WX    TMP DP  RH WIND       PRES   REMARKS
FAIRFIELD *    LGT SNOW  18   9  68 N8        30.39R WCI   7
FORT MADISON * MOCLDY    18   9  68 CALM      30.37R
KEOKUK *       CLEAR     19   7  58 CALM      30.36R
OSKALOOSA *      N/A     14   9  79 N13       30.40R WCI   0
CENTERVILLE *  CLEAR     18   5  57 NW14      30.38R WCI   4
WASHINGTON *   CLOUDY    18   9  68 N8        30.39R WCI   7
$$

ABBREVIATIONS USED IN REMARKS
   TC - TEMPERATURES IN CELSIUS
  WCI - WIND CHILL INDEX
   HX - HEAT INDEX
  VSB - VISIBILITY
$$




USA.gov is the U.S. government's official web portal to all federal, state and local government web resources and services.